Wind_Speed
22 25 28 31 31 30 30 30 31 31 31 31 31 33 34 35 36 37 37 36 34 34 34 34 33 33 34 35 33 33 34 35 34 35 34 32 30 30 31 30 28 26 25 24
21 23 28 31 29 30 32 31 28 27 28 29 32 36 38 40 41 40 40 40 40 40 40 39 38 37 36 36 34 33 33 35 34 33 32 30 29 30 30 28 25 23 21 19
20 23 26 32 31 25 23 23 22 23 27 31 36 39 41 41 41 41 41 41 41 41 41 40 39 39 38 37 36 34 33 34 35 34 32 30 29 29 29 27 24 22 20 18
19 22 24 27 29 33 31 27 28 31 35 37 38 37 36 35 34 35 35 36 36 37 37 37 37 37 38 38 37 36 34 34 35 35 34 33 32 31 31 30 28 25 24 22
12 16 19 24 26 26 26 26 28 31 33 33 32 30 29 28 28 28 30 31 32 33 33 33 34 34 35 35 34 33 33 33 34 35 34 33 34 34 35 35 34 32 30 28
12 15 17 17 19 20 19 17 17 18 21 23 23 23 22 23 24 25 26 27 26 25 26 27 27 28 29 30 29 28 28 28 30 32 32 32 33 34 36 38 39 37 36 34
11 13 15 16 16 16 16 17 16 16 17 17 18 19 21 22 23 24 24 25 24 20 19 20 20 20 21 23 25 26 26 26 27 27 28 28 29 32 33 32 33 34 35 35
11 11 12 13 13 14 15 14 14 14 14 15 15 17 18 20 21 22 22 22 20 17 16 17 17 17 17 16 17 19 22 25 26 26 27 27 28 30 33 31 29 29 30 31
8 7 8 9 11 12 12 12 13 13 14 14 14 16 18 20 21 21 20 19 16 14 13 15 17 18 17 15 14 15 17 19 21 23 23 23 23 24 25 26 25 25 26 27
9 4 3 4 6 7 8 9 11 11 12 13 15 17 19 20 20 18 16 15 14 13 13 14 14 15 17 16 15 17 18 19 20 22 24 24 24 22 22 21 21 20 21 22
9 7 4 5 7 9 10 11 12 13 14 16 18 19 19 18 16 15 14 14 13 13 14 16 18 20 21 21 21 22 23 25 26 26 27 27 26 24 24 23 22 22 22 22
11 11 9 7 7 9 10 11 12 13 14 15 16 16 17 16 16 15 15 15 15 16 18 18 19 20 22 24 26 28 30 31 31 30 28 28 28 28 27 27 26 27 28 30
13 13 12 11 10 10 10 11 12 12 13 14 15 16 16 17 17 16 16 16 17 19 20 21 22 23 24 25 27 28 30 32 33 33 33 33 33 32 31 30 30 32 34 35
17 16 15 15 14 14 13 13 13 14 15 15 15 15 16 16 15 14 14 15 16 17 19 20 22 23 25 27 30 32 33 34 35 36 37 38 39 37 36 35 35 36 37 39
18 18 17 17 17 17 16 16 17 17 17 17 15 14 14 15 14 14 14 14 15 16 16 17 18 20 23 25 28 31 33 35 36 37 37 37 38 38 38 38 39 40 41 42
16 17 18 18 18 18 17 16 16 17 18 18 16 15 15 16 15 16 16 16 16 16 15 15 17 19 20 21 24 26 29 31 33 33 34 34 34 35 37 38 40 41 43 44
13 15 16 17 17 17 16 16 17 18 18 18 18 17 16 16 15 16 17 17 17 17 17 18 18 19 20 22 24 26 28 29 30 31 32 33 35 36 37 37 39 41 43 45
13 14 15 16 16 17 17 17 17 17 18 17 17 17 18 18 17 16 17 17 18 19 20 21 21 21 22 23 24 26 27 29 31 32 34 35 36 37 38 38 38 40 42 44
15 15 15 16 16 16 16 16 17 17 17 17 17 17 17 18 18 18 18 18 19 20 21 22 22 22 23 24 25 26 27 29 31 33 36 37 38 39 40 41 42 43 44 45
17 17 17 17 17 17 16 16 16 17 17 18 18 18 18 18 18 18 18 18 19 20 22 23 24 24 24 25 27 29 30 32 34 35 36 36 36 37 39 41 44 45 46 46
17 18 19 19 19 18 18 17 17 17 17 18 19 19 20 20 19 19 19 19 20 22 23 24 25 25 25 26 28 29 31 32 33 33 33 33 34 36 40 42 43 44 44 44
18 18 19 20 20 20 20 20 20 20 20 20 21 21 21 21 21 21 20 20 20 22 24 24 24 25 25 26 26 28 30 32 33 33 34 35 37 39 41 41 40 39 39 39
19 19 19 19 19 20 21 21 21 20 20 21 22 22 23 22 22 21 21 22 23 24 25 25 25 25 27 28 30 32 34 37 40 41 41 41 40 40 39 37 35 34 34 35
20 19 19 19 19 20 21 22 22 22 21 21 23 23 24 24 23 22 21 23 25 27 28 28 28 28 28 30 32 33 36 40 43 45 43 41 39 36 35 33 32 31 32 33
21 20 20 19 19 19 20 21 22 23 23 23 24 25 25 25 24 23 23 24 26 28 29 30 29 30 31 32 33 34 36 41 45 44 41 37 34 32 29 28 28 29 29 29
21 20 20 21 20 20 19 19 20 21 22 23 24 25 25 25 25 25 25 26 27 29 30 30 30 30 32 33 34 35 38 42 45 43 39 34 31 29 27 25 24 24 25 25
22 21 22 22 20 19 19 19 18 18 19 20 22 23 25 25 26 27 27 27 28 29 30 30 29 31 33 35 36 38 40 42 43 41 37 32 29 27 25 24 23 22 23 23
Wind_Direction
269 254 244 242 244 247 251 253 250 250 253 258 261 263 266 269 271 275 278 280 280 281 278 276 276 277 276 274 271 265 260 260 262 262 261 264 264 262 263 266 268 264 260 258
262 252 242 242 248 253 254 253 251 252 256 263 268 271 273 274 275 277 278 278 280 281 279 277 275 274 274 273 270 266 260 257 259 260 259 260 260 258 258 261 261 257 254 252
248 247 244 242 240 239 238 234 241 250 261 268 272 273 276 277 277 278 277 275 276 277 277 276 274 272 270 268 268 266 263 257 256 256 257 256 255 254 253 254 254 250 248 247
242 240 241 242 243 244 249 258 264 271 274 277 279 279 281 281 281 280 277 275 274 273 273 272 269 267 264 263 262 261 259 256 253 253 252 252 251 251 248 249 250 248 245 242
256 248 245 238 238 245 254 264 270 271 272 275 278 279 279 280 282 283 284 284 282 278 273 268 264 261 260 259 259 256 254 252 249 250 249 248 246 244 243 244 244 244 241 238
271 253 245 248 252 258 261 266 268 269 269 269 271 274 279 283 285 286 288 291 293 285 272 263 258 255 253 253 253 251 248 246 246 246 247 247 244 241 237 238 240 240 238 236
281 273 264 263 267 269 272 272 270 270 269 267 269 277 283 285 285 285 287 293 297 289 270 258 253 253 253 252 249 244 241 238 236 237 240 241 240 237 236 238 240 240 239 238
300 285 282 269 270 283 286 278 272 271 270 271 281 291 295 294 289 287 289 294 294 284 267 256 254 254 252 250 245 239 236 234 231 231 236 240 245 246 248 252 254 249 245 244
338 307 294 291 290 293 295 290 285 279 273 274 284 295 299 297 293 289 290 290 288 280 271 262 254 246 243 245 244 243 240 237 236 237 243 251 260 263 263 263 260 256 252 250
1 350 291 271 275 282 287 291 288 281 275 278 287 293 296 294 292 290 290 288 283 275 268 261 249 238 235 236 246 246 246 247 246 250 257 263 267 265 263 261 262 261 258 256
357 357 331 286 282 287 293 298 296 291 290 293 294 294 294 293 292 289 288 289 286 282 273 265 260 258 255 253 253 247 245 246 248 252 256 258 257 255 255 259 261 257 254 252
11 8 5 349 323 310 308 307 303 300 299 299 299 298 295 293 291 288 287 287 286 286 285 281 276 271 265 258 255 253 250 248 250 251 251 250 250 252 254 257 255 250 249 251
17 11 5 360 350 337 329 327 323 318 314 311 307 302 296 293 291 289 287 288 290 290 289 287 285 280 273 264 259 257 253 251 251 250 249 249 250 251 253 256 256 254 254 255
23 18 13 8 4 359 355 350 344 337 330 323 315 308 302 297 295 293 292 293 295 295 293 290 288 284 279 273 269 267 265 265 262 261 260 260 260 262 262 262 261 260 260 260
18 15 11 5 2 360 357 349 341 338 335 331 326 323 318 314 312 308 302 299 299 298 295 293 291 290 286 282 279 277 277 277 277 277 277 277 277 276 275 272 269 267 267 265
11 10 7 2 357 355 356 352 348 349 351 350 345 339 334 329 323 313 304 301 300 300 300 298 294 292 292 291 289 286 283 282 281 281 280 279 277 274 273 271 268 266 266 265
358 359 358 355 351 349 350 354 356 359 359 358 356 352 349 343 333 322 314 311 310 308 305 301 299 296 293 289 288 287 286 285 284 283 281 279 278 276 275 274 272 270 267 264
337 341 344 346 345 344 343 344 347 350 352 352 352 348 343 342 338 331 324 320 316 311 308 307 306 301 295 291 290 291 291 290 288 285 283 280 278 276 276 275 273 270 268 266
322 324 326 329 332 335 339 339 337 337 337 338 340 339 336 333 331 328 325 321 316 311 309 308 306 302 299 297 297 297 297 296 295 293 290 287 285 283 282 280 277 274 270 267
306 311 315 317 318 322 329 334 333 329 326 325 327 329 329 326 323 322 321 318 315 312 310 308 305 304 302 301 301 303 304 304 302 299 295 291 288 286 285 284 282 280 276 272
300 305 308 308 309 311 315 319 321 323 323 321 320 321 321 320 318 316 316 317 320 321 320 318 314 311 308 307 308 309 309 308 305 301 296 292 290 288 287 286 283 280 278 274
305 306 308 308 307 306 307 308 311 316 319 319 318 317 316 316 315 313 311 312 316 318 320 321 322 320 318 315 315 316 318 319 318 313 307 300 296 293 291 290 286 281 277 274
305 309 311 313 311 308 304 301 302 306 310 313 314 314 313 312 312 312 308 308 311 314 317 320 323 324 323 320 319 320 323 325 325 322 316 310 304 298 294 291 287 281 277 274
297 306 310 311 310 309 308 306 302 301 303 306 309 310 309 308 308 310 307 305 307 312 315 318 321 323 323 322 320 319 320 321 322 321 316 310 305 300 295 290 286 282 278 276
285 294 301 304 304 306 307 309 309 306 303 305 308 308 307 307 307 306 304 304 308 312 313 315 319 322 323 322 320 318 318 320 321 322 319 314 309 304 298 292 288 285 282 280
276 283 292 297 296 298 301 304 305 305 305 307 309 310 311 311 312 314 313 310 309 311 313 315 318 321 322 321 319 320 321 323 324 325 324 321 316 310 304 298 293 289 287 285
269 278 287 291 287 288 294 299 299 299 301 305 309 314 315 317 322 326 323 318 315 316 318 318 319 321 324 324 322 323 324 325 325 327 328 326 322 318 313 307 301 296 293 290
Height
5744 5744 5746 5748 5749 5750 5752 5752 5754 5756 5757 5759 5760 5760 5760 5760 5760 5760 5760 5761 5762 5762 5763 5763 5763 5763 5762 5762 5762 5762 5763 5764 5765 5766 5767 5768 5769 5770 5771 5771 5771 5770 5770 5770
5738 5737 5739 5741 5743 5743 5744 5746 5747 5749 5750 5751 5751 5752 5752 5752 5752 5752 5752 5751 5751 5751 5751 5752 5752 5752 5752 5752 5752 5753 5754 5755 5756 5757 5758 5759 5761 5762 5763 5764 5763 5763 5763 5763
5733 5732 5733 5735 5737 5738 5738 5738 5740 5741 5743 5743 5744 5744 5743 5743 5743 5742 5742 5741 5741 5740 5739 5739 5739 5739 5739 5740 5741 5743 5744 5746 5747 5748 5749 5750 5752 5753 5754 5756 5756 5756 5756 5757
5727 5728 5728 5731 5730 5731 5732 5732 5733 5734 5735 5735 5736 5735 5734 5733 5732 5731 5730 5730 5729 5728 5728 5727 5727 5727 5728 5729 5730 5732 5733 5735 5736 5738 5740 5742 5743 5744 5746 5747 5748 5749 5749 5750
5723 5723 5723 5724 5725 5726 5727 5728 5728 5728 5728 5728 5728 5728 5726 5725 5723 5722 5721 5719 5718 5716 5715 5715 5716 5717 5717 5718 5719 5721 5722 5724 5726 5728 5731 5732 5734 5736 5737 5738 5740 5741 5742 5743
5720 5720 5720 5721 5721 5721 5723 5724 5724 5723 5723 5722 5721 5721 5720 5718 5716 5715 5713 5711 5709 5707 5706 5706 5707 5708 5708 5709 5711 5712 5714 5715 5717 5719 5721 5723 5725 5726 5728 5729 5731 5732 5733 5735
5716 5716 5716 5717 5717 5717 5720 5719 5719 5718 5717 5716 5715 5715 5714 5712 5710 5708 5706 5704 5703 5701 5700 5700 5701 5701 5702 5703 5704 5705 5707 5708 5710 5711 5712 5714 5716 5718 5719 5720 5722 5723 5724 5726
5712 5711 5714 5712 5713 5714 5713 5713 5712 5711 5711 5710 5709 5708 5706 5705 5703 5702 5700 5699 5697 5696 5695 5696 5696 5696 5697 5698 5698 5699 5701 5702 5704 5704 5705 5706 5708 5709 5710 5711 5712 5714 5715 5716
5710 5710 5708 5708 5708 5708 5707 5707 5707 5706 5706 5705 5704 5702 5700 5699 5697 5696 5695 5693 5692 5692 5691 5692 5692 5692 5693 5693 5694 5695 5696 5697 5698 5698 5699 5699 5700 5700 5701 5702 5703 5704 5706 5707
5707 5706 5705 5704 5704 5704 5703 5702 5702 5701 5700 5699 5698 5696 5695 5693 5691 5689 5688 5688 5687 5687 5688 5688 5688 5689 5689 5689 5690 5690 5691 5691 5692 5693 5693 5693 5693 5692 5693 5694 5695 5696 5697 5698
5705 5703 5702 5701 5700 5699 5698 5698 5696 5695 5695 5694 5692 5691 5689 5688 5686 5685 5684 5683 5683 5683 5683 5683 5684 5684 5684 5684 5685 5685 5685 5685 5686 5686 5686 5686 5686 5686 5686 5686 5687 5689 5690 5691
5705 5702 5700 5699 5697 5696 5695 5694 5692 5691 5690 5688 5687 5685 5684 5683 5682 5681 5680 5679 5679 5678 5678 5677 5677 5677 5677 5677 5677 5678 5678 5678 5678 5678 5679 5678 5678 5678 5678 5679 5679 5680 5681 5682
5705 5702 5700 5698 5696 5695 5693 5691 5689 5688 5686 5685 5683 5681 5680 5678 5677 5676 5675 5674 5673 5672 5671 5671 5670 5670 5669 5669 5669 5669 5669 5668 5668 5669 5669 5669 5669 5669 5670 5670 5670 5671 5671 5671
5705 5702 5700 5697 5695 5693 5691 5689 5688 5686 5684 5682 5680 5678 5676 5674 5673 5671 5670 5669 5668 5666 5664 5663 5662 5662 5661 5661 5661 5660 5659 5658 5658 5658 5658 5658 5658 5658 5658 5658 5659 5658 5659 5659
5706 5703 5700 5697 5694 5692 5689 5687 5685 5683 5681 5679 5677 5674 5672 5670 5668 5667 5665 5663 5662 5661 5659 5658 5656 5655 5654 5653 5652 5651 5650 5649 5648 5648 5648 5647 5646 5645 5645 5645 5645 5645 5645 5645
5707 5703 5700 5697 5694 5691 5688 5686 5683 5680 5677 5674 5673 5671 5669 5667 5665 5662 5660 5658 5657 5656 5654 5652 5651 5649 5648 5646 5644 5643 5641 5640 5639 5638 5636 5635 5634 5633 5633 5632 5632 5631 5631 5631
5705 5702 5699 5696 5693 5690 5687 5684 5682 5679 5676 5672 5669 5667 5665 5664 5662 5659 5657 5655 5653 5651 5649 5647 5645 5643 5641 5639 5636 5634 5633 5631 5629 5627 5625 5623 5622 5621 5620 5619 5617 5616 5615 5615
5703 5701 5698 5695 5692 5688 5685 5681 5678 5676 5673 5671 5668 5665 5662 5660 5657 5655 5653 5651 5649 5647 5644 5642 5640 5637 5634 5631 5629 5626 5624 5622 5619 5616 5614 5612 5610 5609 5607 5606 5604 5602 5600 5599
5698 5697 5695 5692 5689 5686 5682 5679 5675 5673 5670 5668 5665 5662 5659 5656 5654 5651 5649 5647 5644 5642 5639 5637 5635 5631 5628 5625 5622 5619 5616 5613 5610 5606 5603 5600 5597 5595 5593 5590 5588 5586 5584 5583
5693 5691 5689 5687 5685 5682 5679 5676 5673 5670 5667 5664 5662 5659 5656 5653 5650 5648 5645 5643 5640 5637 5634 5631 5628 5624 5621 5618 5615 5612 5608 5605 5601 5596 5592 5589 5585 5582 5579 5575 5572 5570 5568 5566
5688 5685 5682 5681 5679 5677 5674 5672 5669 5666 5663 5660 5657 5654 5651 5649 5646 5644 5641 5638 5635 5632 5629 5626 5622 5618 5614 5611 5608 5604 5600 5595 5591 5586 5581 5577 5574 5570 5565 5561 5558 5554 5551 5549
5680 5678 5676 5674 5672 5670 5668 5666 5663 5660 5658 5655 5652 5649 5647 5644 5642 5639 5635 5633 5630 5627 5623 5619 5615 5612 5608 5604 5600 5596 5591 5585 5580 5575 5569 5565 5560 5555 5550 5546 5542 5539 5537 5535
5673 5672 5670 5667 5665 5663 5661 5659 5657 5655 5652 5649 5647 5644 5641 5639 5636 5634 5631 5627 5625 5621 5617 5613 5609 5605 5601 5597 5591 5586 5580 5574 5568 5562 5556 5550 5545 5539 5535 5531 5528 5525 5523 5522
5665 5664 5662 5660 5658 5655 5653 5651 5649 5648 5646 5643 5640 5637 5635 5632 5630 5628 5625 5621 5618 5614 5610 5606 5601 5597 5592 5588 5583 5578 5572 5566 5560 5553 5545 5538 5531 5526 5521 5518 5515 5513 5511 5510
5657 5656 5655 5653 5651 5648 5646 5643 5641 5639 5637 5636 5633 5631 5628 5626 5623 5621 5618 5614 5610 5606 5602 5597 5593 5589 5584 5579 5574 5569 5564 5557 5550 5543 5534 5526 5520 5515 5510 5507 5504 5502 5500 5498
5649 5648 5647 5646 5644 5641 5639 5637 5634 5632 5629 5628 5626 5624 5622 5619 5616 5613 5610 5606 5602 5598 5594 5590 5586 5581 5577 5571 5565 5560 5554 5547 5540 5532 5524 5517 5510 5505 5501 5497 5495 5492 5490 5489
5640 5640 5639 5638 5636 5634 5632 5630 5628 5626 5623 5622 5620 5617 5614 5611 5608 5605 5602 5599 5595 5591 5587 5583 5579 5574 5568 5562 5556 5550 5544 5537 5530 5522 5515 5509 5503 5498 5494 5490 5487 5485 5482 5480